Regional Weather Roundup
Issued by NWS

Home | Current Version | Previous Version | Graphics & Text | Print | Product List | Glossary On
Versions: 1 2 3 4 5 6 7 8 9 10 11 12 13 14 15 16 17 18 19 20 21 22 23 24 25 26 27 28 29 30 31 32 33 34 35 36 37 38 39 40 41 42 43 44 45 46 47 48 49 50
000
ASUS43 KMPX 301610
RWRMN
WEATHER ROUNDUP FOR MINNESOTA
NATIONAL WEATHER SERVICE TWIN CITIES/CHANHASSEN MN
1100 AM CDT MON MAY 30 2016


NOTE: "FAIR" INDICATES FEW OR NO CLOUDS BELOW 12,000 FEET WITH NO
SIGNIFICANT WEATHER AND/OR OBSTRUCTIONS TO VISIBILITY. N/A MEANS
CURRENT SKY AND/OR WEATHER CONDITIONS ARE NOT AVAILABLE.

MNZ060>063-068>070-301700-
   Twin Cities Metro

CITY           SKY/WX    TMP DP  RH WIND       PRES   REMARKS
TWIN CITIES    PTSUNNY   77  55  46 S6        30.00S
ST PAUL        SUNNY     77  58  51 SE7       29.99F
CRYSTAL        MOSUNNY   77  50  38 VRB3      29.98S
BLAINE         MOSUNNY   77  55  47 S7        29.99F
EDEN PRAIRIE   MOSUNNY   77  54  44 VRB5      29.98F
SOUTH ST PAUL  SUNNY     76  55  47 CALM      30.00S
LAKE ELMO      FAIR      77  57  50 S7        30.01F
$$
MNZ001>005-007-008-013>017-022>024-027-028-301700-
   Northwest Minnesota

CITY           SKY/WX    TMP DP  RH WIND       PRES   REMARKS
BEMIDJI        MOSUNNY   75  46  35 W3        29.96F
HALLOCK        SUNNY     72  54  53 S6        29.91S
ROSEAU         SUNNY     70  55  60 S3        29.94S
WARROAD        SUNNY     63  57  82 NE8       29.96S
THIEF RVR FALL MOSUNNY   73  52  46 SW16      29.95S
CROOKSTON      PTSUNNY   70  55  60 S6        29.93F
FOSSTON        MOSUNNY   73  45  35 S6        29.95S
DETROIT LAKES  SUNNY     73  50  43 W9        29.96F
MOORHEAD       SUNNY     75  54  46 SW6       29.92F
PARK RAPIDS    SUNNY     77  47  34 SW13      29.95F
MAHNOMEN       FAIR      73  55  53 SW7       29.94F
$$
MNZ006-009>011-018-025>026-301700-
   North Central Minnesota

CITY           SKY/WX    TMP DP  RH WIND       PRES   REMARKS
BAUDETTE       SUNNY     71  54  54 CALM      29.95S
FLAG ISLAND    SUNNY     61  54  77 N7        29.94S
INTL FALLS     SUNNY     71  54  54 NW6       29.95S
WASKISH        SUNNY     70  50  49 W6        29.95F
BIG FORK       SUNNY     75  46  35 W5        29.96S
LONGVILLE      SUNNY     75  48  38 W7        29.97S
GRAND RAPIDS   SUNNY     73  48  41 SW8       29.98F
CRANE LAKE     SUNNY     66  52  59 NW9       29.97S
ORR            SUNNY     70  50  49 NW8       29.94S
COOK           SUNNY     70  50  49 W10       29.96F
WALKER         FAIR      74  48  39 SW3       29.96F
$$
MNZ012-019>021-037-301700-
   Northeast Minnesota

CITY           SKY/WX    TMP DP  RH WIND       PRES   REMARKS
DULUTH         MOSUNNY   74  44  34 NW14      29.97S
ELY            SUNNY     68  52  56 W10G23    29.95F
HIBBING        SUNNY     72  46  39 W7        29.97S
EVELETH        SUNNY     72  45  37 W12       29.98S
DULUTH HARBOR  SUNNY     75  54  46 W7        29.96F
TWO HARBORS      N/A     75  54  46 W14G21    29.95R
SILVER BAY     MOSUNNY   75  46  35 W9        29.93S
GRAND MARAIS     N/A     50  43  77 SW9       29.91S
G MARAIS ARPRT SUNNY     64  48  55 W14G22    29.94S
$$
MNZ029>031-032-039>041-046>048-054>057-064-301700-
   West Central Minnesota

CITY           SKY/WX    TMP DP  RH WIND       PRES   REMARKS
FERGUS FALLS   SUNNY     75  50  41 SW5       29.91F
WHEATON        SUNNY     82  48  30 S8        29.94F
MORRIS         SUNNY     79  55  44 SE6       29.94S
ALEXANDRIA     SUNNY     75  51  43 CALM      29.98F
ELBOW LAKE     FAIR      75  54  48 SE6       29.96S
WADENA         SUNNY     75  52  43 SW6       29.96F
GLENWOOD       SUNNY     75  54  46 SE3       29.98S
APPLETON       MOSUNNY   75  54  46 S8        29.95S
ORTONVILLE     SUNNY     75  55  50 S8        29.94F
MADISON        SUNNY     77  54  44 S14       29.95F
WILLMAR        FAIR      73  57  56 CALM      29.99S
$$
MNZ033>034-036-042>043-049>051-058-059-301700-
   Central Minnesota

CITY           SKY/WX    TMP DP  RH WIND       PRES   REMARKS
ST CLOUD       SUNNY     76  53  44 SW5       29.98S
SAUK CENTRE    FAIR      75  51  42 W3        29.98S
PAYNESVILLE    MOSUNNY   76  47  34 CALM      29.98F
AITKIN         SUNNY     77  45  31 SW6       29.96S
PINE RIVER     SUNNY     75  48  38 SW7       29.99F
BRAINERD       SUNNY     76  48  37 VRB3      29.97F
STAPLES        SUNNY     75  50  41 SW5       29.97F
LONG PRAIRIE   FAIR      73  52  46 CALM      29.98F
LITTLE FALLS   SUNNY     73  50  43 CALM      29.98F
LITCHFIELD     MOSUNNY   75  57  53 CALM      29.99F
BUFFALO        MOSUNNY   73  52  48 SW3       30.00S
MAPLE LAKE     PTSUNNY   73  58  59 CALM      30.00S
HUTCHINSON     SUNNY     75  60  60 SE3       30.00S
$$
MNZ037-044-045-052-053-301700-
   East Central Minnesota

CITY           SKY/WX    TMP DP  RH WIND       PRES   REMARKS
PRINCETON      CLOUDY    79  52  38 CALM      29.98S
MORA           SUNNY     73  52  46 W8        30.00S
CAMBRIDGE      SUNNY     79  55  44 S5        29.97S
RUSH CITY      SUNNY     76  58  53 S5        29.99F
MOOSE LAKE     MOSUNNY   73  48  40 W6        29.96S
HINCKLEY       FAIR      73  55  53 S5        29.99S
CLOQUET        SUNNY     73  43  33 W7        29.98S
MCGREGOR       SUNNY     73  50  43 W5        29.97F
$$
MNZ071>073-080-081-089-090-097-098-301700-
   Southwest Minnesota

CITY           SKY/WX    TMP DP  RH WIND       PRES   REMARKS
MONTEVIDEO     CLOUDY    75  57  53 SW9       29.99F
GRANITE FALLS  CLOUDY    78  57  47 SW8       29.99F
CANBY          MOSUNNY   78  57  48 S9G16     29.97F
MARSHALL       MOSUNNY   76  55  48 S13       29.98F
REDWOOD FALLS  MOSUNNY   76  54  46 S9        29.98F
OLIVIA         MOSUNNY   77  59  53 S6        29.99S
PIPESTONE      SUNNY     72  57  60 S15       30.00F
WINDOM         SUNNY     75  50  41 CALM      30.01S
WORTHINGTON      N/A     73  55  53 S14       30.01F
JACKSON        SUNNY     73  50  43 SE13      30.02F
TRACY          SUNNY     77  55  47 S8        29.99F
SLAYTON        SUNNY     74  53  46 S16       30.01F
$$
MNZ065>067-074>077-082>085-091>093-301700-
   South Central Minnesota

CITY           SKY/WX    TMP DP  RH WIND       PRES   REMARKS
MANKATO        SUNNY     75  54  46 S10G18    30.01S
NEW ULM        SUNNY     75  55  50 S13       29.99F
FAIRMONT       SUNNY     73  54  49 SE15      30.00F
GLENCOE        CLOUDY    74  60  60 CALM      29.99S
FARIBAULT      CLOUDY    73  59  60 S7        30.02S
OWATONNA       SUNNY     77  55  47 S9        30.02F
WASECA         MOSUNNY   77  54  44 S13       30.03F
ALBERT LEA     SUNNY     75  55  50 S10       30.03S
$$
MNZ078>079-086>088-094>096-301700-
   Southeast Minnesota

CITY           SKY/WX    TMP DP  RH WIND       PRES   REMARKS
ROCHESTER      SUNNY     76  55  48 S9        30.04S
RED WING       SUNNY     75  61  60 SE5       30.00S
STANTON        CLOUDY    74  58  57 S6        30.00S
DODGE CENTER   SUNNY     77  50  38 S10       30.03S
WINONA         SUNNY     73  61  64 E3        30.03S
AUSTIN         SUNNY     73  55  53 S10       30.04S
PRESTON        SUNNY     75  53  45 S9        30.05S
$$
ABBREVIATIONS USED IN REMARKS
   TC - TEMPERATURES IN CELSIUS
  WCI - WIND CHILL INDEX
   HX - HEAT INDEX
  VSB - VISIBILITY
$$




USA.gov is the U.S. government's official web portal to all federal, state and local government web resources and services.